TCN71 KRDU-KIAG

Flight info

Callsign TCN71
Flight time N/A
Altitude 45000
Route OXFRD5 OXFRD FLINT TOSTR AIRCO ZUPUV
Aircraft C750/M-SBDE3FGHRWXY/S

Departure

Time 2026-05-08 00:37
Airport Raleigh-Durham International Airport (KRDU)

Arrival

Time N/A
Airport Niagara Falls International Airport (KIAG)
Time Latitude Longitude Altitude Speed Heading
2026-05-08 00:24 35.87906 -78.78399 434 ft 0 kts 225°
2026-05-08 00:30 35.87905 -78.78400 434 ft 1 kts 225°
2026-05-08 00:31 35.87888 -78.78421 423 ft 4 kts 225°
2026-05-08 00:31 35.87867 -78.78422 433 ft 3 kts 129°
2026-05-08 00:31 35.87851 -78.78401 433 ft 0 kts 135°
2026-05-08 00:32 35.87850 -78.78400 433 ft 2 kts 135°
2026-05-08 00:32 35.87814 -78.78374 427 ft 8 kts 181°
2026-05-08 00:32 35.87752 -78.78438 426 ft 15 kts 224°
2026-05-08 00:33 35.87686 -78.78522 431 ft 10 kts 223°
2026-05-08 00:33 35.87624 -78.78507 423 ft 11 kts 176°
2026-05-08 00:33 35.87545 -78.78592 428 ft 21 kts 225°
2026-05-08 00:33 35.87413 -78.78752 429 ft 31 kts 227°
2026-05-08 00:34 35.87249 -78.78958 422 ft 33 kts 225°
2026-05-08 00:34 35.87080 -78.79165 411 ft 34 kts 227°
2026-05-08 00:34 35.86917 -78.79364 410 ft 32 kts 225°
2026-05-08 00:34 35.86764 -78.79553 413 ft 31 kts 225°
2026-05-08 00:35 35.86612 -78.79740 408 ft 26 kts 225°
2026-05-08 00:35 35.86541 -78.79794 407 ft 0 kts 152°
2026-05-08 00:35 35.86538 -78.79792 407 ft 3 kts 152°
2026-05-08 00:36 35.86505 -78.79750 408 ft 10 kts 116°
2026-05-08 00:36 35.86548 -78.79624 410 ft 48 kts 43°
2026-05-08 00:36 35.87054 -78.79009 445 ft 139 kts 45°
2026-05-08 00:36 35.87814 -78.78069 740 ft 169 kts 44°
2026-05-08 00:37 35.88725 -78.77006 1084 ft 196 kts 35°
2026-05-08 00:37 35.90155 -78.76539 1296 ft 227 kts
2026-05-08 00:37 35.91804 -78.76356 1730 ft 247 kts
2026-05-08 00:38 35.95107 -78.75184 3507 ft 250 kts 18°
2026-05-08 00:38 35.96768 -78.74558 4684 ft 252 kts 15°
2026-05-08 00:38 35.98477 -78.73981 5602 ft 247 kts 13°
2026-05-08 00:38 36.00148 -78.73427 6016 ft 260 kts 11°
2026-05-08 00:39 36.01911 -78.72830 5995 ft 263 kts 11°
2026-05-08 00:39 36.03671 -78.72218 5998 ft 262 kts 11°
2026-05-08 00:39 36.05428 -78.71611 6012 ft 262 kts 11°
2026-05-08 00:39 36.07182 -78.71013 6012 ft 261 kts 11°
2026-05-08 00:40 36.08931 -78.70413 6014 ft 262 kts 11°
2026-05-08 00:40 36.10688 -78.69807 6015 ft 261 kts 11°
2026-05-08 00:40 36.12442 -78.69202 6018 ft 261 kts 11°
2026-05-08 00:40 36.14175 -78.68604 6020 ft 262 kts 11°
2026-05-08 00:41 36.15999 -78.67980 6244 ft 282 kts 11°
2026-05-08 00:41 36.17846 -78.67342 7548 ft 273 kts 11°
2026-05-08 00:41 36.19715 -78.66692 8499 ft 284 kts 11°
2026-05-08 00:41 36.21642 -78.66025 9499 ft 290 kts 11°
2026-05-08 00:42 36.23614 -78.65344 10335 ft 300 kts 10°
2026-05-08 00:42 36.25708 -78.64627 10653 ft 326 kts
2026-05-08 00:42 36.27991 -78.63845 10828 ft 354 kts
2026-05-08 00:42 36.30433 -78.63000 11258 ft 369 kts 10°
2026-05-08 00:43 36.32901 -78.62127 12121 ft 371 kts 10°
2026-05-08 00:43 36.35398 -78.61250 12784 ft 377 kts
2026-05-08 00:43 36.37855 -78.60396 13432 ft 383 kts
2026-05-08 00:43 36.40438 -78.59481 14139 ft 387 kts
2026-05-08 00:44 36.43069 -78.58888 14693 ft 382 kts 355°
2026-05-08 00:44 36.45719 -78.58899 15405 ft 381 kts 351°
2026-05-08 00:44 36.48379 -78.58928 16070 ft 386 kts 352°
2026-05-08 00:44 36.50993 -78.58850 16735 ft 392 kts 354°
2026-05-08 00:45 36.53751 -78.58741 17420 ft 396 kts 353°
2026-05-08 00:45 36.56513 -78.58693 18112 ft 399 kts 352°
2026-05-08 00:45 36.59298 -78.58696 18794 ft 403 kts 351°
2026-05-08 00:45 36.62124 -78.58692 19486 ft 408 kts 351°
2026-05-08 00:46 36.64973 -78.58647 20197 ft 412 kts 351°
2026-05-08 00:46 36.67865 -78.58589 20870 ft 417 kts 350°
2026-05-08 00:46 36.70773 -78.58549 21543 ft 420 kts 349°
2026-05-08 00:46 36.73712 -78.58528 22169 ft 425 kts 349°
2026-05-08 00:47 36.76685 -78.58504 22842 ft 429 kts 349°
2026-05-08 00:47 36.79691 -78.58465 23512 ft 433 kts 348°
2026-05-08 00:47 36.82721 -78.58421 24105 ft 438 kts 348°
2026-05-08 00:47 36.85791 -78.58385 24691 ft 442 kts 348°
2026-05-08 00:48 36.88867 -78.58353 25352 ft 444 kts 347°
2026-05-08 00:48 36.91957 -78.58321 25933 ft 446 kts 347°
2026-05-08 00:48 36.95077 -78.58288 26510 ft 449 kts 347°
2026-05-08 00:48 36.98168 -78.58254 26983 ft 451 kts 347°
2026-05-08 00:49 37.01319 -78.58215 27521 ft 454 kts 347°
2026-05-08 00:49 37.04488 -78.58170 28097 ft 458 kts 347°
2026-05-08 00:49 37.07675 -78.58131 28612 ft 459 kts 347°
2026-05-08 00:49 37.10870 -78.58100 29147 ft 461 kts 347°
2026-05-08 00:50 37.14089 -78.58067 29631 ft 464 kts 347°
2026-05-08 00:50 37.17336 -78.58027 30113 ft 467 kts 346°
2026-05-08 00:50 37.20594 -78.57982 30612 ft 470 kts 346°
2026-05-08 00:50 37.23871 -78.57942 31098 ft 471 kts 346°
2026-05-08 00:51 37.27145 -78.57906 31777 ft 470 kts 346°
2026-05-08 00:51 37.30362 -78.57867 32451 ft 467 kts 346°
2026-05-08 00:51 37.33605 -78.57827 33013 ft 468 kts 346°
2026-05-08 00:51 37.36865 -78.57790 33566 ft 467 kts 346°
2026-05-08 00:52 37.40191 -78.57750 34196 ft 466 kts 346°
2026-05-08 00:52 37.43434 -78.57710 34789 ft 464 kts 346°
2026-05-08 00:52 37.46658 -78.57674 35320 ft 464 kts 346°
2026-05-08 00:52 37.49904 -78.57643 35790 ft 466 kts 346°
2026-05-08 00:53 37.53139 -78.57607 36325 ft 466 kts 346°
2026-05-08 00:53 37.56386 -78.57566 36770 ft 468 kts 346°
2026-05-08 00:53 37.59636 -78.57523 37289 ft 467 kts 346°
2026-05-08 00:53 37.62881 -78.57479 37908 ft 464 kts 346°
2026-05-08 00:54 37.66061 -78.57442 38440 ft 463 kts 346°
2026-05-08 00:54 37.69271 -78.57409 39010 ft 462 kts 346°
2026-05-08 00:54 37.72490 -78.57377 39437 ft 464 kts 346°
2026-05-08 00:54 37.75724 -78.57340 39844 ft 466 kts 346°
2026-05-08 00:55 37.78967 -78.57298 40284 ft 467 kts 347°
2026-05-08 00:55 37.82213 -78.57253 40777 ft 466 kts 347°
2026-05-08 00:55 37.85447 -78.57210 41282 ft 465 kts 347°
2026-05-08 00:55 37.88679 -78.57176 41706 ft 465 kts 347°
2026-05-08 00:56 37.91921 -78.57145 42114 ft 466 kts 347°
2026-05-08 00:56 37.95167 -78.57106 42521 ft 466 kts 347°
2026-05-08 00:56 37.98416 -78.57061 42914 ft 467 kts 347°
2026-05-08 00:56 38.01662 -78.57018 43314 ft 466 kts 347°
2026-05-08 00:57 38.04901 -78.56980 43728 ft 465 kts 347°
2026-05-08 00:57 38.08139 -78.56949 44041 ft 466 kts 347°
2026-05-08 00:57 38.11385 -78.56914 44362 ft 467 kts 348°
2026-05-08 00:57 38.14598 -78.56872 44651 ft 469 kts 348°
2026-05-08 00:58 38.17866 -78.56830 44873 ft 471 kts 348°
2026-05-08 00:58 38.24512 -78.56764 44932 ft 485 kts 349°
2026-05-08 00:59 38.31372 -78.56670 44947 ft 501 kts 350°
2026-05-08 00:59 38.38445 -78.56587 44951 ft 515 kts 350°
2026-05-08 01:00 38.45685 -78.56498 44949 ft 525 kts 350°
2026-05-08 01:00 38.52999 -78.56402 44933 ft 533 kts 350°
2026-05-08 01:01 38.60460 -78.56318 44938 ft 539 kts 351°
2026-05-08 01:01 38.67977 -78.56219 44917 ft 543 kts 351°
2026-05-08 01:02 38.75542 -78.56127 44918 ft 545 kts 351°
2026-05-08 01:02 38.83134 -78.56036 44925 ft 545 kts 351°
2026-05-08 01:03 38.90720 -78.55939 44921 ft 546 kts 351°
2026-05-08 01:03 38.98331 -78.55851 44918 ft 547 kts 351°
2026-05-08 01:04 39.05948 -78.55750 44919 ft 547 kts 351°
2026-05-08 01:04 39.12325 -78.55673 44917 ft 548 kts 351°
2026-05-08 01:05 39.19891 -78.55582 44916 ft 546 kts 351°
2026-05-08 01:05 39.27543 -78.55484 44914 ft 546 kts 351°
2026-05-08 01:06 39.34964 -78.55397 44926 ft 548 kts 351°
2026-05-08 01:06 39.42598 -78.55295 44931 ft 548 kts 351°
2026-05-08 01:07 39.50228 -78.55203 44954 ft 548 kts 351°
2026-05-08 01:07 39.57854 -78.55110 44960 ft 549 kts 352°
2026-05-08 01:08 39.65442 -78.55008 44961 ft 548 kts 352°
2026-05-08 01:08 39.73095 -78.54663 44951 ft 551 kts 353°
2026-05-08 01:09 39.80760 -78.54330 44954 ft 551 kts 353°
2026-05-08 01:09 39.88422 -78.53995 44942 ft 551 kts 353°
2026-05-08 01:10 39.96097 -78.53614 44931 ft 552 kts 353°
2026-05-08 01:10 39.99917 -78.53445 44925 ft 540 kts 353°
2026-05-08 01:10 40.03597 -78.53268 44904 ft 519 kts 353°
2026-05-08 01:10 40.07137 -78.53092 44902 ft 498 kts 353°
2026-05-08 01:11 40.10523 -78.52934 44894 ft 477 kts 352°
2026-05-08 01:11 40.13776 -78.52791 44893 ft 458 kts 352°
2026-05-08 01:11 40.16899 -78.52651 44893 ft 440 kts 351°
2026-05-08 01:11 40.19859 -78.52510 44896 ft 423 kts 351°
2026-05-08 01:12 40.22742 -78.52372 44895 ft 407 kts 350°
2026-05-08 01:12 40.25515 -78.52243 44894 ft 391 kts 350°
2026-05-08 01:12 40.28182 -78.52122 44900 ft 377 kts 349°
2026-05-08 01:12 40.30761 -78.52006 44898 ft 365 kts 349°
2026-05-08 01:13 40.33282 -78.51895 44903 ft 362 kts 349°
2026-05-08 01:13 40.38414 -78.51681 44912 ft 377 kts 349°
2026-05-08 01:14 40.43737 -78.51417 44930 ft 393 kts 350°
2026-05-08 01:14 40.49216 -78.51160 44938 ft 400 kts 350°
2026-05-08 01:15 40.54771 -78.50890 44932 ft 397 kts 351°
2026-05-08 01:15 40.60264 -78.50632 44916 ft 393 kts 350°
2026-05-08 01:16 40.65711 -78.50381 44918 ft 391 kts 350°
2026-05-08 01:16 40.71127 -78.50124 44916 ft 393 kts 350°
2026-05-08 01:17 40.76591 -78.49867 44922 ft 393 kts 350°
2026-05-08 01:17 40.82064 -78.49605 44923 ft 394 kts 351°
2026-05-08 01:18 40.87548 -78.49346 44926 ft 394 kts 351°
2026-05-08 01:18 40.93026 -78.49085 44924 ft 394 kts 351°
2026-05-08 01:19 40.98461 -78.48828 44925 ft 394 kts 351°
2026-05-08 01:19 41.03940 -78.48564 44924 ft 394 kts 351°